User: anonymous   Login
Location: Unspecified
(0.0000°N, 0.0000°E)
Time: 01:52:55
(UTC+00:00)
Language:

STARLINK-33762 - Orbit

View from above orbital plane
View from above orbital plane
View from above satellite
View from above satellite

Ground track
Ground track

The orbit is defined by the following mean orbital elements,

1 63442U          26145.38873830 +.00000000 +00000-0 +91422-3 0 00001
2 63442  53.1590 143.6688 0001336  58.5980 301.5156 15.42173693    00
Epoch (UTC): 25 May 2026 09:19:46
Eccentricity: 0.0001336
inclination: 53.1590°
perigee height: 439 km
apogee height: 441 km
right ascension of ascending node: 143.6688°
argument of perigee: 58.5980°
revolutions per day: 15.42173693
mean anomaly at epoch: 301.5156°

The dashed part of the orbit path shows where the satellite is in the earth's shadow,  

DLR